iso_date,epoch_date,Year,Hour,Min,DOY,POS_DOY,Lat,Lon,BP,Ts,Ta,has_bp,has_ts,has_ta,BuoyID,Buoy_Type,Buoy_Owner,Logistics,Hemisphere
2018-08-03T22:00:28Z,1533333629,2018,22,0,215.917,215.917,68.924,-24.8172,1012.4,3.7,-999.0,yes,yes,no,300234065580620,BD2GI,AOML,DNR,North
2018-08-03T22:59:31Z,1533337171,2018,23,0,215.958,215.958,68.917,-24.8052,1012.8,3.7,-999.0,yes,yes,no,300234065580620,BD2GI,AOML,DNR,North
2018-08-04T00:00:00Z,1533340800,2018,0,0,216.0,216.0,68.9124,-24.7884,1012.9,3.7,-999.0,yes,yes,no,300234065580620,BD2GI,AOML,DNR,North
2018-08-04T01:00:28Z,1533344429,2018,1,0,216.042,216.042,68.9066,-24.766,1013.0,3.7,-999.0,yes,yes,no,300234065580620,BD2GI,AOML,DNR,North
2018-08-04T01:59:31Z,1533347971,2018,2,0,216.083,216.083,68.9014,-24.7488,1012.8,3.8,-999.0,yes,yes,no,300234065580620,BD2GI,AOML,DNR,North
2018-08-04T03:00:00Z,1533351600,2018,3,0,216.125,216.125,68.8974,-24.7354,1012.8,3.8,-999.0,yes,yes,no,300234065580620,BD2GI,AOML,DNR,North
2018-08-04T04:00:28Z,1533355229,2018,4,0,216.167,216.167,68.8936,-24.7284,1012.7,3.73,-999.0,yes,yes,no,300234065580620,BD2GI,AOML,DNR,North
2018-08-04T04:59:31Z,1533358771,2018,5,0,216.208,216.208,68.8906,-24.7284,1012.7,3.7,-999.0,yes,yes,no,300234065580620,BD2GI,AOML,DNR,North
2018-08-04T06:00:00Z,1533362400,2018,6,0,216.25,216.25,68.8872,-24.7314,1012.8,3.66,-999.0,yes,yes,no,300234065580620,BD2GI,AOML,DNR,North
2018-08-04T07:00:28Z,1533366029,2018,7,0,216.292,216.292,68.8862,-24.7346,1013.1,3.66,-999.0,yes,yes,no,300234065580620,BD2GI,AOML,DNR,North
2018-08-04T07:59:31Z,1533369571,2018,8,0,216.333,216.333,68.8864,-24.7324,1013.4,3.66,-999.0,yes,yes,no,300234065580620,BD2GI,AOML,DNR,North
2018-08-04T09:00:00Z,1533373200,2018,9,0,216.375,216.375,68.8868,-24.7306,1013.6,3.66,-999.0,yes,yes,no,300234065580620,BD2GI,AOML,DNR,North
2018-08-04T10:00:28Z,1533376829,2018,10,0,216.417,216.417,68.8888,-24.7212,1013.8,3.7,-999.0,yes,yes,no,300234065580620,BD2GI,AOML,DNR,North
2018-08-04T10:59:31Z,1533380371,2018,11,0,216.458,216.458,68.891,-24.6992,1014.1,3.8,-999.0,yes,yes,no,300234065580620,BD2GI,AOML,DNR,North
2018-08-04T12:00:00Z,1533384000,2018,12,0,216.5,216.5,68.89,-24.6732,1014.3,3.77,-999.0,yes,yes,no,300234065580620,BD2GI,AOML,DNR,North
2018-08-04T13:00:28Z,1533387629,2018,13,0,216.542,216.542,68.8872,-24.6464,1014.2,3.8,-999.0,yes,yes,no,300234065580620,BD2GI,AOML,DNR,North
2018-08-04T13:59:31Z,1533391171,2018,14,0,216.583,216.583,68.8838,-24.6212,1014.3,3.87,-999.0,yes,yes,no,300234065580620,BD2GI,AOML,DNR,North
2018-08-04T15:00:00Z,1533394800,2018,15,0,216.625,216.625,68.8784,-24.595,1014.1,3.9,-999.0,yes,yes,no,300234065580620,BD2GI,AOML,DNR,North
2018-08-04T16:00:28Z,1533398429,2018,16,0,216.667,216.667,68.8722,-24.5738,1014.1,3.9,-999.0,yes,yes,no,300234065580620,BD2GI,AOML,DNR,North
2018-08-04T16:59:31Z,1533401971,2018,17,0,216.708,216.708,68.8642,-24.5622,1014.3,3.9,-999.0,yes,yes,no,300234065580620,BD2GI,AOML,DNR,North
2018-08-04T18:00:00Z,1533405600,2018,18,0,216.75,216.75,68.8566,-24.5582,1014.3,3.87,-999.0,yes,yes,no,300234065580620,BD2GI,AOML,DNR,North
2018-08-04T19:00:28Z,1533409229,2018,19,0,216.792,216.792,68.8514,-24.5624,1014.4,3.83,-999.0,yes,yes,no,300234065580620,BD2GI,AOML,DNR,North
2018-08-04T19:59:31Z,1533412771,2018,20,0,216.833,216.833,68.846,-24.559,1014.6,3.83,-999.0,yes,yes,no,300234065580620,BD2GI,AOML,DNR,North
2018-08-04T21:00:00Z,1533416400,2018,21,0,216.875,216.875,68.837,-24.5544,1014.8,3.8,-999.0,yes,yes,no,300234065580620,BD2GI,AOML,DNR,North
2018-08-04T22:00:28Z,1533420029,2018,22,0,216.917,216.917,68.8268,-24.5512,1014.9,3.8,-999.0,yes,yes,no,300234065580620,BD2GI,AOML,DNR,North
2018-08-04T22:59:31Z,1533423571,2018,23,0,216.958,216.958,68.8172,-24.5508,1015.1,3.77,-999.0,yes,yes,no,300234065580620,BD2GI,AOML,DNR,North
2018-08-05T00:00:00Z,1533427200,2018,0,0,217.0,217.0,68.8086,-24.5564,1015.0,3.8,-999.0,yes,yes,no,300234065580620,BD2GI,AOML,DNR,North
2018-08-05T01:00:28Z,1533430829,2018,1,0,217.042,217.042,68.8012,-24.5654,1015.0,3.77,-999.0,yes,yes,no,300234065580620,BD2GI,AOML,DNR,North
2018-08-05T01:59:31Z,1533434371,2018,2,0,217.083,217.083,68.7972,-24.5754,1015.0,3.77,-999.0,yes,yes,no,300234065580620,BD2GI,AOML,DNR,North
2018-08-05T03:00:00Z,1533438000,2018,3,0,217.125,217.125,68.7938,-24.586,1014.9,3.8,-999.0,yes,yes,no,300234065580620,BD2GI,AOML,DNR,North
2018-08-05T04:00:28Z,1533441629,2018,4,0,217.167,217.167,68.7914,-24.5992,1014.8,3.8,-999.0,yes,yes,no,300234065580620,BD2GI,AOML,DNR,North
2018-08-05T04:59:31Z,1533445171,2018,5,0,217.208,217.208,68.7884,-24.6112,1014.8,3.83,-999.0,yes,yes,no,300234065580620,BD2GI,AOML,DNR,North
2018-08-05T06:00:00Z,1533448800,2018,6,0,217.25,217.25,68.7862,-24.6266,1014.9,3.87,-999.0,yes,yes,no,300234065580620,BD2GI,AOML,DNR,North
2018-08-05T07:00:28Z,1533452429,2018,7,0,217.292,217.292,68.7858,-24.6388,1014.8,3.87,-999.0,yes,yes,no,300234065580620,BD2GI,AOML,DNR,North
2018-08-05T07:59:31Z,1533455971,2018,8,0,217.333,217.333,68.7852,-24.6478,1014.9,3.9,-999.0,yes,yes,no,300234065580620,BD2GI,AOML,DNR,North
2018-08-05T09:00:00Z,1533459600,2018,9,0,217.375,217.375,68.7842,-24.6532,1015.2,3.9,-999.0,yes,yes,no,300234065580620,BD2GI,AOML,DNR,North
2018-08-05T10:00:28Z,1533463229,2018,10,0,217.417,217.417,68.7816,-24.658,1015.4,3.9,-999.0,yes,yes,no,300234065580620,BD2GI,AOML,DNR,North
2018-08-05T10:59:31Z,1533466771,2018,11,0,217.458,217.458,68.7784,-24.6614,1015.6,3.94,-999.0,yes,yes,no,300234065580620,BD2GI,AOML,DNR,North
2018-08-05T12:00:00Z,1533470400,2018,12,0,217.5,217.5,68.7758,-24.6648,1015.9,4.01,-999.0,yes,yes,no,300234065580620,BD2GI,AOML,DNR,North
2018-08-05T13:00:28Z,1533474029,2018,13,0,217.542,217.542,68.7758,-24.6636,1016.3,4.04,-999.0,yes,yes,no,300234065580620,BD2GI,AOML,DNR,North
2018-08-05T13:59:31Z,1533477571,2018,14,0,217.583,217.583,68.7764,-24.664,1016.4,4.25,-999.0,yes,yes,no,300234065580620,BD2GI,AOML,DNR,North
2018-08-05T15:00:00Z,1533481200,2018,15,0,217.625,217.625,68.7772,-24.6688,1016.5,4.72,-999.0,yes,yes,no,300234065580620,BD2GI,AOML,DNR,North
2018-08-05T16:00:28Z,1533484829,2018,16,0,217.667,217.667,68.779,-24.6722,1016.4,5.17,-999.0,yes,yes,no,300234065580620,BD2GI,AOML,DNR,North
2018-08-05T16:59:31Z,1533488371,2018,17,0,217.708,217.708,68.7798,-24.674,1016.3,4.72,-999.0,yes,yes,no,300234065580620,BD2GI,AOML,DNR,North
2018-08-05T18:00:00Z,1533492000,2018,18,0,217.75,217.75,68.781,-24.6746,1016.2,4.55,-999.0,yes,yes,no,300234065580620,BD2GI,AOML,DNR,North
2018-08-05T19:00:28Z,1533495629,2018,19,0,217.792,217.792,68.7816,-24.6786,1016.2,4.48,-999.0,yes,yes,no,300234065580620,BD2GI,AOML,DNR,North
2018-08-05T19:59:31Z,1533499171,2018,20,0,217.833,217.833,68.7828,-24.6842,1016.3,4.38,-999.0,yes,yes,no,300234065580620,BD2GI,AOML,DNR,North
2018-08-05T21:00:00Z,1533502800,2018,21,0,217.875,217.875,68.7828,-24.689,1016.4,4.28,-999.0,yes,yes,no,300234065580620,BD2GI,AOML,DNR,North
2018-08-05T22:00:28Z,1533506429,2018,22,0,217.917,217.917,68.7828,-24.695,1016.5,4.21,-999.0,yes,yes,no,300234065580620,BD2GI,AOML,DNR,North
2018-08-05T22:59:31Z,1533509971,2018,23,0,217.958,217.958,68.7824,-24.6972,1016.8,4.11,-999.0,yes,yes,no,300234065580620,BD2GI,AOML,DNR,North
2018-08-06T00:00:00Z,1533513600,2018,0,0,218.0,218.0,68.7808,-24.6964,1016.9,4.07,-999.0,yes,yes,no,300234065580620,BD2GI,AOML,DNR,North
2018-08-06T01:00:28Z,1533517229,2018,1,0,218.042,218.042,68.7792,-24.6964,1017.0,4.04,-999.0,yes,yes,no,300234065580620,BD2GI,AOML,DNR,North
2018-08-06T01:59:31Z,1533520771,2018,2,0,218.083,218.083,68.778,-24.6948,1016.7,4.01,-999.0,yes,yes,no,300234065580620,BD2GI,AOML,DNR,North
2018-08-06T03:00:00Z,1533524400,2018,3,0,218.125,218.125,68.7776,-24.6898,1016.4,3.97,-999.0,yes,yes,no,300234065580620,BD2GI,AOML,DNR,North
2018-08-06T04:00:28Z,1533528029,2018,4,0,218.167,218.167,68.7776,-24.6858,1016.4,3.97,-999.0,yes,yes,no,300234065580620,BD2GI,AOML,DNR,North
2018-08-06T04:59:31Z,1533531571,2018,5,0,218.208,218.208,68.779,-24.6842,1016.6,3.97,-999.0,yes,yes,no,300234065580620,BD2GI,AOML,DNR,North
2018-08-06T06:00:00Z,1533535200,2018,6,0,218.25,218.25,68.7798,-24.6836,1017.0,3.97,-999.0,yes,yes,no,300234065580620,BD2GI,AOML,DNR,North
2018-08-06T07:00:28Z,1533538829,2018,7,0,218.292,218.292,68.7786,-24.6856,1017.0,4.01,-999.0,yes,yes,no,300234065580620,BD2GI,AOML,DNR,North
2018-08-06T07:59:31Z,1533542371,2018,8,0,218.333,218.333,68.7788,-24.6946,1017.1,4.01,-999.0,yes,yes,no,300234065580620,BD2GI,AOML,DNR,North
2018-08-06T09:00:00Z,1533546000,2018,9,0,218.375,218.375,68.7792,-24.698,1017.3,4.01,-999.0,yes,yes,no,300234065580620,BD2GI,AOML,DNR,North
2018-08-06T10:00:28Z,1533549629,2018,10,0,218.417,218.417,68.7786,-24.7008,1017.2,4.01,-999.0,yes,yes,no,300234065580620,BD2GI,AOML,DNR,North
2018-08-06T10:59:31Z,1533553171,2018,11,0,218.458,218.458,68.7768,-24.703,1017.2,4.01,-999.0,yes,yes,no,300234065580620,BD2GI,AOML,DNR,North
2018-08-06T12:00:00Z,1533556800,2018,12,0,218.5,218.5,68.7754,-24.7038,1017.4,4.01,-999.0,yes,yes,no,300234065580620,BD2GI,AOML,DNR,North
2018-08-06T13:00:28Z,1533560429,2018,13,0,218.542,218.542,68.773,-24.699,1017.5,4.04,-999.0,yes,yes,no,300234065580620,BD2GI,AOML,DNR,North
2018-08-06T13:59:31Z,1533563971,2018,14,0,218.583,218.583,68.7692,-24.695,1017.5,4.04,-999.0,yes,yes,no,300234065580620,BD2GI,AOML,DNR,North
2018-08-06T15:00:00Z,1533567600,2018,15,0,218.625,218.625,68.7654,-24.6908,1017.3,4.01,-999.0,yes,yes,no,300234065580620,BD2GI,AOML,DNR,North
2018-08-06T16:00:28Z,1533571229,2018,16,0,218.667,218.667,68.7616,-24.6892,1017.1,4.01,-999.0,yes,yes,no,300234065580620,BD2GI,AOML,DNR,North
2018-08-06T16:59:31Z,1533574771,2018,17,0,218.708,218.708,68.7574,-24.6912,1016.8,4.01,-999.0,yes,yes,no,300234065580620,BD2GI,AOML,DNR,North
2018-08-06T18:00:00Z,1533578400,2018,18,0,218.75,218.75,68.7524,-24.6952,1016.8,3.97,-999.0,yes,yes,no,300234065580620,BD2GI,AOML,DNR,North
2018-08-06T19:00:28Z,1533582029,2018,19,0,218.792,218.792,68.748,-24.7034,1016.8,4.01,-999.0,yes,yes,no,300234065580620,BD2GI,AOML,DNR,North
2018-08-06T19:59:31Z,1533585571,2018,20,0,218.833,218.833,68.7442,-24.7156,1017.1,3.97,-999.0,yes,yes,no,300234065580620,BD2GI,AOML,DNR,North
2018-08-06T21:00:00Z,1533589200,2018,21,0,218.875,218.875,68.7402,-24.7328,1017.1,3.9,-999.0,yes,yes,no,300234065580620,BD2GI,AOML,DNR,North
2018-08-06T22:00:28Z,1533592829,2018,22,0,218.917,218.917,68.736,-24.7504,1017.3,3.66,-999.0,yes,yes,no,300234065580620,BD2GI,AOML,DNR,North
2018-08-06T22:59:31Z,1533596371,2018,23,0,218.958,218.958,68.7314,-24.7722,1017.2,3.53,-999.0,yes,yes,no,300234065580620,BD2GI,AOML,DNR,North
2018-08-07T00:00:00Z,1533600000,2018,0,0,219.0,219.0,68.729,-24.7924,1017.3,3.77,-999.0,yes,yes,no,300234065580620,BD2GI,AOML,DNR,North
2018-08-07T01:00:28Z,1533603629,2018,1,0,219.042,219.042,68.727,-24.8104,1017.3,3.66,-999.0,yes,yes,no,300234065580620,BD2GI,AOML,DNR,North
2018-08-07T01:59:31Z,1533607171,2018,2,0,219.083,219.083,68.7278,-24.827,1017.0,3.49,-999.0,yes,yes,no,300234065580620,BD2GI,AOML,DNR,North
2018-08-07T03:00:00Z,1533610800,2018,3,0,219.125,219.125,68.732,-24.8386,1016.7,3.46,-999.0,yes,yes,no,300234065580620,BD2GI,AOML,DNR,North
2018-08-07T04:00:28Z,1533614429,2018,4,0,219.167,219.167,68.7388,-24.846,1016.6,3.49,-999.0,yes,yes,no,300234065580620,BD2GI,AOML,DNR,North
2018-08-07T04:59:31Z,1533617971,2018,5,0,219.208,219.208,68.7474,-24.8472,1016.4,3.56,-999.0,yes,yes,no,300234065580620,BD2GI,AOML,DNR,North
2018-08-07T06:00:00Z,1533621600,2018,6,0,219.25,219.25,68.7562,-24.8394,1016.4,3.6,-999.0,yes,yes,no,300234065580620,BD2GI,AOML,DNR,North
2018-08-07T07:00:28Z,1533625229,2018,7,0,219.292,219.292,68.764,-24.8308,1016.2,3.6,-999.0,yes,yes,no,300234065580620,BD2GI,AOML,DNR,North
2018-08-07T07:59:31Z,1533628771,2018,8,0,219.333,219.333,68.7712,-24.8284,1016.2,3.66,-999.0,yes,yes,no,300234065580620,BD2GI,AOML,DNR,North
2018-08-07T09:00:00Z,1533632400,2018,9,0,219.375,219.375,68.7782,-24.8276,1016.1,3.66,-999.0,yes,yes,no,300234065580620,BD2GI,AOML,DNR,North
2018-08-07T10:00:28Z,1533636029,2018,10,0,219.417,219.417,68.785,-24.8264,1015.7,3.73,-999.0,yes,yes,no,300234065580620,BD2GI,AOML,DNR,North
2018-08-07T10:59:31Z,1533639571,2018,11,0,219.458,219.458,68.7916,-24.8242,1015.6,4.01,-999.0,yes,yes,no,300234065580620,BD2GI,AOML,DNR,North
2018-08-07T12:00:00Z,1533643200,2018,12,0,219.5,219.5,68.797,-24.818,1015.5,4.11,-999.0,yes,yes,no,300234065580620,BD2GI,AOML,DNR,North
2018-08-07T13:00:28Z,1533646829,2018,13,0,219.542,219.542,68.8012,-24.8102,1015.1,4.28,-999.0,yes,yes,no,300234065580620,BD2GI,AOML,DNR,North
2018-08-07T13:59:31Z,1533650371,2018,14,0,219.583,219.583,68.8034,-24.7976,1014.5,4.45,-999.0,yes,yes,no,300234065580620,BD2GI,AOML,DNR,North
2018-08-07T15:00:00Z,1533654000,2018,15,0,219.625,219.625,68.8054,-24.7812,1014.0,4.48,-999.0,yes,yes,no,300234065580620,BD2GI,AOML,DNR,North
2018-08-07T16:00:28Z,1533657629,2018,16,0,219.667,219.667,68.807,-24.7638,1013.4,4.45,-999.0,yes,yes,no,300234065580620,BD2GI,AOML,DNR,North
2018-08-07T16:59:31Z,1533661171,2018,17,0,219.708,219.708,68.8082,-24.7486,1012.8,4.38,-999.0,yes,yes,no,300234065580620,BD2GI,AOML,DNR,North
2018-08-07T18:00:00Z,1533664800,2018,18,0,219.75,219.75,68.8108,-24.7346,1012.5,4.01,-999.0,yes,yes,no,300234065580620,BD2GI,AOML,DNR,North
2018-08-07T19:00:28Z,1533668429,2018,19,0,219.792,219.792,68.816,-24.722,1012.2,3.9,-999.0,yes,yes,no,300234065580620,BD2GI,AOML,DNR,North
2018-08-07T19:59:31Z,1533671971,2018,20,0,219.833,219.833,68.822,-24.7082,1011.7,3.87,-999.0,yes,yes,no,300234065580620,BD2GI,AOML,DNR,North
2018-08-07T21:00:00Z,1533675600,2018,21,0,219.875,219.875,68.8264,-24.6908,1011.0,3.8,-999.0,yes,yes,no,300234065580620,BD2GI,AOML,DNR,North
2018-08-07T22:00:28Z,1533679229,2018,22,0,219.917,219.917,68.8302,-24.6716,1010.5,3.77,-999.0,yes,yes,no,300234065580620,BD2GI,AOML,DNR,North
2018-08-07T22:59:31Z,1533682771,2018,23,0,219.958,219.958,68.8326,-24.6514,1010.0,3.8,-999.0,yes,yes,no,300234065580620,BD2GI,AOML,DNR,North
2018-08-08T00:00:00Z,1533686400,2018,0,0,220.0,220.0,68.8328,-24.6286,1009.6,3.9,-999.0,yes,yes,no,300234065580620,BD2GI,AOML,DNR,North
2018-08-08T01:00:28Z,1533690029,2018,1,0,220.042,220.042,68.831,-24.602,1009.3,3.8,-999.0,yes,yes,no,300234065580620,BD2GI,AOML,DNR,North
2018-08-08T01:59:31Z,1533693571,2018,2,0,220.083,220.083,68.827,-24.5726,1009.0,3.8,-999.0,yes,yes,no,300234065580620,BD2GI,AOML,DNR,North
2018-08-08T03:00:00Z,1533697200,2018,3,0,220.125,220.125,68.8198,-24.5478,1008.5,3.8,-999.0,yes,yes,no,300234065580620,BD2GI,AOML,DNR,North
2018-08-08T04:00:28Z,1533700829,2018,4,0,220.167,220.167,68.8122,-24.5314,1008.1,3.8,-999.0,yes,yes,no,300234065580620,BD2GI,AOML,DNR,North
2018-08-08T04:59:31Z,1533704371,2018,5,0,220.208,220.208,68.804,-24.5196,1007.6,3.77,-999.0,yes,yes,no,300234065580620,BD2GI,AOML,DNR,North
2018-08-08T06:00:00Z,1533708000,2018,6,0,220.25,220.25,68.8026,-24.5158,1007.4,3.7,-999.0,yes,yes,no,300234065580620,BD2GI,AOML,DNR,North
2018-08-08T07:00:28Z,1533711629,2018,7,0,220.292,220.292,68.8022,-24.5144,1007.0,3.77,-999.0,yes,yes,no,300234065580620,BD2GI,AOML,DNR,North
2018-08-08T07:59:31Z,1533715171,2018,8,0,220.333,220.333,68.8012,-24.5122,1007.0,3.83,-999.0,yes,yes,no,300234065580620,BD2GI,AOML,DNR,North
2018-08-08T09:00:00Z,1533718800,2018,9,0,220.375,220.375,68.7998,-24.5076,1006.9,3.87,-999.0,yes,yes,no,300234065580620,BD2GI,AOML,DNR,North
2018-08-08T10:00:28Z,1533722429,2018,10,0,220.417,220.417,68.7968,-24.5012,1006.7,3.9,-999.0,yes,yes,no,300234065580620,BD2GI,AOML,DNR,North
2018-08-08T10:59:31Z,1533725971,2018,11,0,220.458,220.458,68.792,-24.4944,1006.3,3.97,-999.0,yes,yes,no,300234065580620,BD2GI,AOML,DNR,North
2018-08-08T12:00:00Z,1533729600,2018,12,0,220.5,220.5,68.786,-24.49,1006.2,4.07,-999.0,yes,yes,no,300234065580620,BD2GI,AOML,DNR,North
2018-08-08T13:00:28Z,1533733229,2018,13,0,220.542,220.542,68.7752,-24.4884,1005.9,4.14,-999.0,yes,yes,no,300234065580620,BD2GI,AOML,DNR,North
2018-08-08T13:59:31Z,1533736771,2018,14,0,220.583,220.583,68.7632,-24.4884,1005.6,4.25,-999.0,yes,yes,no,300234065580620,BD2GI,AOML,DNR,North
2018-08-08T15:00:00Z,1533740400,2018,15,0,220.625,220.625,68.75,-24.4936,1005.4,4.31,-999.0,yes,yes,no,300234065580620,BD2GI,AOML,DNR,North
2018-08-08T16:00:28Z,1533744029,2018,16,0,220.667,220.667,68.738,-24.5076,1005.0,4.38,-999.0,yes,yes,no,300234065580620,BD2GI,AOML,DNR,North
2018-08-08T16:59:31Z,1533747571,2018,17,0,220.708,220.708,68.7284,-24.5252,1004.8,4.42,-999.0,yes,yes,no,300234065580620,BD2GI,AOML,DNR,North
2018-08-08T18:00:00Z,1533751200,2018,18,0,220.75,220.75,68.7208,-24.5408,1004.8,4.45,-999.0,yes,yes,no,300234065580620,BD2GI,AOML,DNR,North
2018-08-08T19:00:28Z,1533754829,2018,19,0,220.792,220.792,68.7142,-24.5564,1004.5,4.38,-999.0,yes,yes,no,300234065580620,BD2GI,AOML,DNR,North
2018-08-08T19:59:31Z,1533758371,2018,20,0,220.833,220.833,68.7094,-24.5708,1004.6,4.28,-999.0,yes,yes,no,300234065580620,BD2GI,AOML,DNR,North
2018-08-08T21:00:00Z,1533762000,2018,21,0,220.875,220.875,68.7048,-24.5904,1004.4,4.28,-999.0,yes,yes,no,300234065580620,BD2GI,AOML,DNR,North
2018-08-08T22:00:28Z,1533765629,2018,22,0,220.917,220.917,68.7006,-24.6118,1004.7,4.28,-999.0,yes,yes,no,300234065580620,BD2GI,AOML,DNR,North
2018-08-08T22:59:31Z,1533769171,2018,23,0,220.958,220.958,68.6962,-24.635,1004.7,4.25,-999.0,yes,yes,no,300234065580620,BD2GI,AOML,DNR,North
2018-08-09T00:00:00Z,1533772800,2018,0,0,221.0,221.0,68.6916,-24.6594,1004.8,4.28,-999.0,yes,yes,no,300234065580620,BD2GI,AOML,DNR,North
2018-08-09T01:00:28Z,1533776429,2018,1,0,221.042,221.042,68.6864,-24.6838,1004.8,4.21,-999.0,yes,yes,no,300234065580620,BD2GI,AOML,DNR,North
2018-08-09T01:59:31Z,1533779971,2018,2,0,221.083,221.083,68.6816,-24.712,1004.7,4.31,-999.0,yes,yes,no,300234065580620,BD2GI,AOML,DNR,North
2018-08-09T03:00:00Z,1533783600,2018,3,0,221.125,221.125,68.6782,-24.7374,1004.6,4.21,-999.0,yes,yes,no,300234065580620,BD2GI,AOML,DNR,North
2018-08-09T04:00:28Z,1533787229,2018,4,0,221.167,221.167,68.6768,-24.7596,1004.4,4.18,-999.0,yes,yes,no,300234065580620,BD2GI,AOML,DNR,North
2018-08-09T04:59:31Z,1533790771,2018,5,0,221.208,221.208,68.6778,-24.7758,1004.1,4.38,-999.0,yes,yes,no,300234065580620,BD2GI,AOML,DNR,North
2018-08-09T06:00:00Z,1533794400,2018,6,0,221.25,221.25,68.6808,-24.7864,1004.3,4.38,-999.0,yes,yes,no,300234065580620,BD2GI,AOML,DNR,North
2018-08-09T07:00:28Z,1533798029,2018,7,0,221.292,221.292,68.6836,-24.7918,1004.4,4.38,-999.0,yes,yes,no,300234065580620,BD2GI,AOML,DNR,North
2018-08-09T07:59:31Z,1533801571,2018,8,0,221.333,221.333,68.6858,-24.796,1004.7,4.31,-999.0,yes,yes,no,300234065580620,BD2GI,AOML,DNR,North
2018-08-09T09:00:00Z,1533805200,2018,9,0,221.375,221.375,68.6878,-24.8,1004.7,4.28,-999.0,yes,yes,no,300234065580620,BD2GI,AOML,DNR,North
2018-08-09T10:00:28Z,1533808829,2018,10,0,221.417,221.417,68.6888,-24.8094,1004.7,4.28,-999.0,yes,yes,no,300234065580620,BD2GI,AOML,DNR,North
2018-08-09T10:59:31Z,1533812371,2018,11,0,221.458,221.458,68.6888,-24.8268,1004.7,4.18,-999.0,yes,yes,no,300234065580620,BD2GI,AOML,DNR,North
2018-08-09T12:00:00Z,1533816000,2018,12,0,221.5,221.5,68.6888,-24.8496,1005.0,4.14,-999.0,yes,yes,no,300234065580620,BD2GI,AOML,DNR,North
2018-08-09T13:00:28Z,1533819629,2018,13,0,221.542,221.542,68.6888,-24.876,1005.0,4.11,-999.0,yes,yes,no,300234065580620,BD2GI,AOML,DNR,North
2018-08-09T13:59:31Z,1533823171,2018,14,0,221.583,221.583,68.6872,-24.8976,1005.0,4.14,-999.0,yes,yes,no,300234065580620,BD2GI,AOML,DNR,North
2018-08-09T15:00:00Z,1533826800,2018,15,0,221.625,221.625,68.6852,-24.9162,1005.1,4.21,-999.0,yes,yes,no,300234065580620,BD2GI,AOML,DNR,North
2018-08-09T16:00:28Z,1533830429,2018,16,0,221.667,221.667,68.6844,-24.9302,1005.0,4.25,-999.0,yes,yes,no,300234065580620,BD2GI,AOML,DNR,North
2018-08-09T16:59:31Z,1533833971,2018,17,0,221.708,221.708,68.6882,-24.937,1005.0,4.21,-999.0,yes,yes,no,300234065580620,BD2GI,AOML,DNR,North
2018-08-09T18:00:00Z,1533837600,2018,18,0,221.75,221.75,68.6942,-24.9344,1005.1,4.28,-999.0,yes,yes,no,300234065580620,BD2GI,AOML,DNR,North
2018-08-09T19:00:28Z,1533841229,2018,19,0,221.792,221.792,68.7,-24.9306,1005.2,4.31,-999.0,yes,yes,no,300234065580620,BD2GI,AOML,DNR,North
2018-08-09T19:59:31Z,1533844771,2018,20,0,221.833,221.833,68.7076,-24.9264,1005.5,4.31,-999.0,yes,yes,no,300234065580620,BD2GI,AOML,DNR,North
2018-08-09T21:00:00Z,1533848400,2018,21,0,221.875,221.875,68.7146,-24.9252,1005.8,4.35,-999.0,yes,yes,no,300234065580620,BD2GI,AOML,DNR,North
2018-08-09T22:00:28Z,1533852029,2018,22,0,221.917,221.917,68.7218,-24.93,1006.0,3.94,-999.0,yes,yes,no,300234065580620,BD2GI,AOML,DNR,North
2018-08-09T22:59:31Z,1533855571,2018,23,0,221.958,221.958,68.7308,-24.9332,1006.3,4.01,-999.0,yes,yes,no,300234065580620,BD2GI,AOML,DNR,North
2018-08-10T00:00:00Z,1533859200,2018,0,0,222.0,222.0,68.7372,-24.9386,1006.5,3.83,-999.0,yes,yes,no,300234065580620,BD2GI,AOML,DNR,North
2018-08-10T01:00:28Z,1533862829,2018,1,0,222.042,222.042,68.7452,-24.9426,1006.8,3.73,-999.0,yes,yes,no,300234065580620,BD2GI,AOML,DNR,North
2018-08-10T01:59:31Z,1533866371,2018,2,0,222.083,222.083,68.7532,-24.9436,1007.0,3.8,-999.0,yes,yes,no,300234065580620,BD2GI,AOML,DNR,North
2018-08-10T03:00:00Z,1533870000,2018,3,0,222.125,222.125,68.7606,-24.9422,1007.2,3.7,-999.0,yes,yes,no,300234065580620,BD2GI,AOML,DNR,North
2018-08-10T04:00:28Z,1533873629,2018,4,0,222.167,222.167,68.7672,-24.9358,1007.3,3.63,-999.0,yes,yes,no,300234065580620,BD2GI,AOML,DNR,North
2018-08-10T04:59:31Z,1533877171,2018,5,0,222.208,222.208,68.7752,-24.9162,1007.7,3.66,-999.0,yes,yes,no,300234065580620,BD2GI,AOML,DNR,North
2018-08-10T06:00:00Z,1533880800,2018,6,0,222.25,222.25,68.7834,-24.887,1008.0,3.63,-999.0,yes,yes,no,300234065580620,BD2GI,AOML,DNR,North
2018-08-10T07:00:28Z,1533884429,2018,7,0,222.292,222.292,68.7906,-24.8538,1008.7,3.63,-999.0,yes,yes,no,300234065580620,BD2GI,AOML,DNR,North
2018-08-10T07:59:31Z,1533887971,2018,8,0,222.333,222.333,68.799,-24.8178,1009.3,3.66,-999.0,yes,yes,no,300234065580620,BD2GI,AOML,DNR,North
2018-08-10T09:00:00Z,1533891600,2018,9,0,222.375,222.375,68.8062,-24.7826,1009.8,3.66,-999.0,yes,yes,no,300234065580620,BD2GI,AOML,DNR,North
2018-08-10T10:00:28Z,1533895229,2018,10,0,222.417,222.417,68.8126,-24.7508,1010.4,3.53,-999.0,yes,yes,no,300234065580620,BD2GI,AOML,DNR,North
2018-08-10T10:59:31Z,1533898771,2018,11,0,222.458,222.458,68.8158,-24.7276,1010.7,3.56,-999.0,yes,yes,no,300234065580620,BD2GI,AOML,DNR,North
2018-08-10T12:00:00Z,1533902400,2018,12,0,222.5,222.5,68.818,-24.7172,1011.0,3.6,-999.0,yes,yes,no,300234065580620,BD2GI,AOML,DNR,North
2018-08-10T13:00:28Z,1533906029,2018,13,0,222.542,222.542,68.8192,-24.7158,1011.5,3.56,-999.0,yes,yes,no,300234065580620,BD2GI,AOML,DNR,North
2018-08-10T13:59:31Z,1533909571,2018,14,0,222.583,222.583,68.8202,-24.7092,1011.6,3.63,-999.0,yes,yes,no,300234065580620,BD2GI,AOML,DNR,North
2018-08-10T15:00:00Z,1533913200,2018,15,0,222.625,222.625,68.8204,-24.6974,1012.0,3.77,-999.0,yes,yes,no,300234065580620,BD2GI,AOML,DNR,North
2018-08-10T16:00:28Z,1533916829,2018,16,0,222.667,222.667,68.8184,-24.6854,1011.9,3.97,-999.0,yes,yes,no,300234065580620,BD2GI,AOML,DNR,North
2018-08-10T16:59:31Z,1533920371,2018,17,0,222.708,222.708,68.8162,-24.6734,1011.9,3.97,-999.0,yes,yes,no,300234065580620,BD2GI,AOML,DNR,North
2018-08-10T18:00:00Z,1533924000,2018,18,0,222.75,222.75,68.812,-24.6556,1011.8,4.01,-999.0,yes,yes,no,300234065580620,BD2GI,AOML,DNR,North
2018-08-10T19:00:28Z,1533927629,2018,19,0,222.792,222.792,68.807,-24.638,1011.9,4.14,-999.0,yes,yes,no,300234065580620,BD2GI,AOML,DNR,North
2018-08-10T19:59:31Z,1533931171,2018,20,0,222.833,222.833,68.803,-24.621,1011.9,4.18,-999.0,yes,yes,no,300234065580620,BD2GI,AOML,DNR,North
2018-08-10T21:00:00Z,1533934800,2018,21,0,222.875,222.875,68.8,-24.607,1012.3,4.07,-999.0,yes,yes,no,300234065580620,BD2GI,AOML,DNR,North
2018-08-10T22:00:28Z,1533938429,2018,22,0,222.917,222.917,68.799,-24.598,1012.4,3.94,-999.0,yes,yes,no,300234065580620,BD2GI,AOML,DNR,North